K0JSC-13 Weather Reports


Display with metric or nautical units.
time (UTC)temp
F
wind
direction
speed
MPH
gust
MPH
rain 1hr
in
rain 24hr
in
rain mn
in
humidity
%
barometer
mb
20260906002703 86 63 7.0 13.0 0.00 0.00 0.00 30 986.0
20260906002018 86 60 8.0 13.0 0.00 0.00 0.00 30 985.9
20260906000903 87 70 7.0 14.0 0.00 0.00 0.00 30 985.9
20260906000003 87 65 9.0 18.0 0.00 0.00 0.00 30 985.8
20260905235404 88 61 8.0 18.0 0.00 0.00 0.00 30 985.7
20260905234503 88 63 10.0 18.0 0.00 0.00 0.00 31 985.8
20260905233817 88 64 7.0 17.0 0.00 0.00 0.00 31 985.7
20260905232703 89 73 10.0 18.0 0.00 0.00 0.00 28 985.8
20260905232018 90 94 9.0 18.0 0.00 0.00 0.00 28 985.7
20260905231117 90 78 7.0 13.0 0.00 0.00 0.00 27 985.6
20260905230218 89 57 9.0 17.0 0.00 0.00 0.00 27 985.6
20260905225403 90 63 10.0 22.0 0.00 0.00 0.00 26 985.5
20260905224504 91 128 4.0 10.0 0.00 0.00 0.00 23 985.5
20260905223603 90 131 7.0 15.0 0.00 0.00 0.00 23 985.5
20260905222703 90 152 7.0 17.0 0.00 0.00 0.00 24 985.4
20260905221803 90 138 7.0 12.0 0.00 0.00 0.00 26 985.5
20260905220903 91 138 6.0 12.0 0.00 0.00 0.00 26 985.6
20260905220218 91 141 5.0 8.0 0.00 0.00 0.00 25 985.6
20260905215403 91 143 5.0 9.0 0.00 0.00 0.00 22 985.6
20260905214503 91 144 6.0 11.0 0.00 0.00 0.00 22 985.6
20260905213604 92 150 6.0 11.0 0.00 0.00 0.00 24 985.7
20260905212917 92 153 4.0 11.0 0.00 0.00 0.00 22 985.7
20260905211803 95 216 3.0 9.0 0.00 0.00 0.00 19 985.7
20260905210903 95 215 1.0 4.0 0.00 0.00 0.00 22 985.7
20260905210217 94 202 1.0 4.0 0.00 0.00 0.00 23 985.8
20260905205403 92 217 1.0 4.0 0.00 0.00 0.00 23 986.0
20260905204503 93 242 1.0 5.0 0.00 0.00 0.00 25 986.0
20260905203603 93 193 0.0 3.0 0.00 0.00 0.00 24 986.2
20260905202704 92 203 0.0 3.0 0.00 0.00 0.00 21 986.2
20260905201803 93 95 0.0 2.0 0.00 0.00 0.00 21 986.3
20260905200903 94 118 0.0 2.0 0.00 0.00 0.00 24 986.3
20260905200217 95 162 1.0 6.0 0.00 0.00 0.00 18 986.5
20260905195403 97 203 2.0 5.0 0.00 0.00 0.00 18 986.5
20260905194503 95 233 1.0 2.0 0.00 0.00 0.00 19 986.7
20260905193603 95 116 1.0 4.0 0.00 0.00 0.00 23 986.8
20260905192703 94 209 1.0 6.0 0.00 0.00 0.00 21 987.0
20260905191804 93 94 1.0 3.0 0.00 0.00 0.00 22 987.2
20260905190903 94 174 1.0 3.0 0.00 0.00 0.00 23 987.3
20260905190217 94 135 1.0 3.0 0.00 0.00 0.00 22 987.5
20260905185403 94 99 0.0 2.0 0.00 0.00 0.00 22 987.6
20260905184718 94 92 0.0 2.0 0.00 0.00 0.00 20 987.7
20260905183817 92 74 0.0 2.0 0.00 0.00 0.00 21 987.8
20260905182703 92 70 1.0 4.0 0.00 0.00 0.00 28 987.9
20260905181803 92 75 1.0 3.0 0.00 0.00 0.00 22 988.1
20260905180904 91 71 1.0 3.0 0.00 0.00 0.00 22 988.2
20260905180003 90 79 1.0 3.0 0.00 0.00 0.00 26 988.4
20260905175403 90 72 2.0 5.0 0.00 0.00 0.00 31 988.4
20260905174717 90 73 3.0 6.0 0.00 0.00 0.00 25 988.5
20260905173603 89 79 3.0 8.0 0.00 0.00 0.00 30 988.6
20260905172703 88 68 3.0 9.0 0.00 0.00 0.00 27 988.8
20260905171803 88 75 3.0 8.0 0.00 0.00 0.00 27 988.8
20260905170903 87 74 4.0 9.0 0.00 0.00 0.00 32 988.9
20260905170004 86 75 4.0 8.0 0.00 0.00 0.00 33 989.0
20260905165403 86 76 3.0 7.0 0.00 0.00 0.00 31 989.0
20260905164503 85 74 4.0 8.0 0.00 0.00 0.00 34 989.0
20260905163603 84 76 4.0 8.0 0.00 0.00 0.00 35 989.1
20260905162703 82 79 4.0 8.0 0.00 0.00 0.00 38 989.1
20260905161803 81 76 6.0 13.0 0.00 0.00 0.00 40 989.2
20260905160903 80 78 6.0 11.0 0.00 0.00 0.00 40 989.4
20260905160003 78 79 4.0 9.0 0.00 0.00 0.00 43 989.6
20260905155404 77 79 3.0 8.0 0.00 0.00 0.00 47 989.6
20260905154503 74 80 3.0 8.0 0.00 0.00 0.00 52 989.8
20260905153603 74 81 2.0 8.0 0.00 0.00 0.00 47 989.7
20260905152703 74 81 2.0 5.0 0.00 0.00 0.00 49 989.8
20260905152017 75 16 4.0 10.0 0.00 0.00 0.00 47 989.8
20260905150903 76 273 5.0 12.0 0.00 0.00 0.00 39 989.8
20260905150003 76 274 5.0 11.0 0.00 0.00 0.00 41 989.9
20260905145403 75 276 4.0 12.0 0.00 0.00 0.00 41 990.0
20260905144504 75 301 3.0 9.0 0.00 0.00 0.00 46 990.0
20260905143817 74 309 7.0 13.0 0.00 0.00 0.00 44 990.1
20260905142703 74 305 4.0 12.0 0.00 0.00 0.00 44 990.2
20260905141803 72 316 2.0 5.0 0.00 0.00 0.00 49 990.2
20260905140903 70 300 1.0 3.0 0.00 0.00 0.00 54 990.2
20260905140004 68 307 2.0 5.0 0.00 0.00 0.00 55 990.2
20260905135616 68 308 2.0 5.0 0.00 0.00 0.00 55 990.2
20260905134718 67 308 3.0 9.0 0.00 0.00 0.00 54 990.2
20260905133604 67 320 3.0 6.0 0.00 0.00 0.00 51 990.2
20260905132703 68 333 4.0 9.0 0.00 0.00 0.00 50 990.2
20260905131803 67 318 5.0 10.0 0.00 0.00 0.00 50 990.1
20260905130903 67 317 5.0 10.0 0.00 0.00 0.00 51 990.1
20260905130004 66 319 5.0 11.0 0.00 0.00 0.00 51 990.0
20260905125403 66 318 5.0 11.0 0.00 0.00 0.00 51 989.9
20260905124717 66 299 2.0 8.0 0.00 0.00 0.00 52 989.8
20260905123817 66 312 4.0 12.0 0.00 0.00 0.00 52 989.6
20260905122704 65 307 5.0 13.0 0.00 0.00 0.00 53 989.5
20260905121803 64 319 4.0 9.0 0.00 0.00 0.00 56 989.4
20260905120903 65 325 2.0 5.0 0.00 0.00 0.00 56 989.5
20260905120003 66 324 4.0 8.0 0.00 0.00 0.00 54 989.7
20260905115403 66 324 4.0 8.0 0.00 0.00 0.00 54 989.6
20260905114503 66 312 5.0 11.0 0.00 0.00 0.00 53 989.5
20260905113603 65 321 7.0 13.0 0.00 0.00 0.00 54 989.5
20260905112918 64 321 5.0 13.0 0.00 0.00 0.00 56 989.5
20260905111804 64 327 2.0 6.0 0.00 0.00 0.00 60 989.6
20260905110903 63 338 4.0 9.0 0.00 0.00 0.00 59 989.5
20260905110218 62 350 4.0 9.0 0.00 0.00 0.00 61 989.4
20260905105403 61 343 2.0 6.0 0.00 0.00 0.00 62 989.3
20260905104503 62 324 0.0 2.0 0.00 0.00 0.00 63 989.3
20260905103603 62 323 0.0 1.0 0.00 0.00 0.00 62 989.3
20260905102703 62 325 2.0 7.0 0.00 0.00 0.00 60 989.3
20260905102017 62 330 4.0 8.0 0.00 0.00 0.00 61 989.3
20260905100904 61 341 3.0 6.0 0.00 0.00 0.00 63 989.0
20260905100004 60 341 1.0 8.0 0.00 0.00 0.00 64 989.1
20260905095403 60 323 1.0 8.0 0.00 0.00 0.00 65 989.1
20260905094503 60 320 1.0 4.0 0.00 0.00 0.00 66 989.1
20260905093603 60 319 1.0 3.0 0.00 0.00 0.00 65 988.9
20260905092703 61 319 2.0 4.0 0.00 0.00 0.00 65 988.9
20260905091803 60 319 2.0 4.0 0.00 0.00 0.00 65 989.0
20260905090903 61 302 2.0 3.0 0.00 0.00 0.00 66 989.0
20260905090004 61 294 2.0 4.0 0.00 0.00 0.00 65 989.0
20260905085403 61 300 2.0 4.0 0.00 0.00 0.00 65 988.9
20260905084503 62 301 2.0 4.0 0.00 0.00 0.00 66 988.9
20260905083603 62 300 1.0 4.0 0.00 0.00 0.00 65 989.0
20260905082703 63 300 0.0 4.0 0.00 0.00 0.00 63 989.0
20260905081803 63 320 3.0 6.0 0.00 0.00 0.00 62 988.9
20260905080903 63 320 2.0 7.0 0.00 0.00 0.00 63 988.8
20260905080003 63 352 1.0 5.0 0.00 0.00 0.00 63 988.9
20260905075404 63 67 0.0 2.0 0.00 0.00 0.00 62 988.9
20260905074503 64 67 1.0 3.0 0.00 0.00 0.00 62 988.8
20260905073603 64 67 1.0 3.0 0.00 0.00 0.00 62 988.8
20260905072703 64 67 0.0 3.0 0.00 0.00 0.00 61 988.8
20260905071803 64 56 1.0 3.0 0.00 0.00 0.00 62 988.8
20260905070903 64 0 0.0 0.0 0.00 0.00 0.00 62 988.5
20260905070004 65 356 0.0 3.0 0.00 0.00 0.00 61 988.3
20260905065403 65 345 0.0 2.0 0.00 0.00 0.00 61 988.4
20260905064504 65 311 1.0 2.0 0.00 0.00 0.00 59 988.4
20260905063816 66 311 1.0 3.0 0.00 0.00 0.00 59 988.2
20260905062703 66 317 3.0 5.0 0.00 0.00 0.00 56 987.9
20260905061803 66 320 1.0 3.0 0.00 0.00 0.00 56 987.8
20260905060903 66 323 2.0 4.0 0.00 0.00 0.00 57 987.7
20260905060220 65 326 3.0 6.0 0.00 0.00 0.00 58 987.6
20260905055403 65 321 2.0 5.0 0.00 0.00 0.00 59 987.6
20260905054503 65 328 2.0 3.0 0.00 0.00 0.00 61 987.5
20260905053604 65 330 1.0 3.0 0.00 0.00 0.00 61 987.4
20260905052703 66 330 0.0 2.0 0.00 0.00 0.00 60 987.5
20260905052017 66 330 2.0 4.0 0.00 0.00 0.00 60 987.5
20260905050903 67 330 1.0 4.0 0.00 0.00 0.00 60 987.4
20260905050003 67 330 2.0 4.0 0.00 0.00 0.00 59 987.3
20260905045403 67 332 3.0 4.0 0.00 0.00 0.00 60 987.3
20260905044503 67 339 2.0 4.0 0.00 0.00 0.00 60 987.3
20260905043603 68 309 2.0 4.0 0.00 0.00 0.00 60 987.4
20260905042704 69 244 1.0 4.0 0.00 0.00 0.00 58 987.4
20260905041803 70 245 2.0 5.0 0.00 0.00 0.00 57 987.6
20260905040903 70 311 2.0 3.0 0.00 0.00 0.00 55 987.4
20260905040003 70 317 2.0 3.0 0.00 0.00 0.00 53 987.1
20260905035403 70 338 2.0 4.0 0.00 0.00 0.00 54 987.1
20260905034503 70 332 2.0 4.0 0.00 0.00 0.00 53 987.1
20260905033603 70 350 2.0 6.0 0.00 0.00 0.00 52 987.1
20260905032703 70 337 2.0 4.0 0.00 0.00 0.00 53 987.0
20260905031804 70 328 2.0 4.0 0.00 0.00 0.00 54 987.1
20260905030903 71 330 2.0 4.0 0.00 0.00 0.00 55 987.1
20260905030217 72 319 3.0 7.0 0.00 0.00 0.00 54 987.0
20260905025403 72 303 3.0 7.0 0.00 0.00 0.00 54 987.0
20260905024503 73 322 2.0 4.0 0.00 0.00 0.00 54 986.8
20260905023603 74 325 1.0 3.0 0.00 0.00 0.00 54 986.6
20260905022703 74 328 2.0 6.0 0.00 0.00 0.00 48 986.5
20260905022018 75 340 3.0 6.0 0.00 0.00 0.00 51 986.2
20260905020904 77 351 1.0 5.0 0.00 0.00 0.00 49 986.0
20260905020003 79 204 1.0 3.0 0.00 0.00 0.00 44 985.9
20260905015403 79 188 1.0 3.0 0.00 0.00 0.00 41 985.9
20260905014503 80 85 3.0 5.0 0.00 0.00 0.00 38 985.7
20260905013603 81 80 4.0 7.0 0.00 0.00 0.00 37 985.6
20260905012703 81 79 4.0 8.0 0.00 0.00 0.00 37 985.5
20260905011803 81 72 4.0 7.0 0.00 0.00 0.00 38 985.4
20260905010903 81 61 5.0 10.0 0.00 0.00 0.00 38 985.4
20260905010004 81 44 4.0 10.0 0.00 0.00 0.00 37 985.4
20260905005403 82 51 6.0 13.0 0.00 0.00 0.00 38 985.5
20260905004503 83 30 6.0 14.0 0.00 0.00 0.00 35 985.5
20260905003603 84 3 4.0 9.0 0.00 0.00 0.00 41 985.6